When you browse on this site, cookies collect data to enhance your experience and personalize the content and advertising you see.
Visit our Privacy Policy to learn more. By continuing to use the site, you agree to this use of cookies and data.

Hourly Weather Barra

Today, 11 August, Tuesday

Time Temperature Precipitation Wind Pressure Humidity
00:00 +15°C° 0 mm 1 mps 750 mmHg 65%
01:00 +15°C° 0 mm 1 mps 750 mmHg 66%
02:00 +15°C° 0 mm 1 mps 750 mmHg 67%
03:00 +15°C° 0 mm 1 mps 750 mmHg 67%
04:00 +14°C° 0 mm 2 mps 750 mmHg 68%
05:00 +14°C° 0 mm 2 mps 751 mmHg 69%
06:00 +14°C° 0 mm 1 mps 751 mmHg 69%
07:00 +15°C° 0 mm 1 mps 751 mmHg 69%
08:00 +18°C° 0 mm 1 mps 751 mmHg 63%
09:00 +21°C° 0 mm 1 mps 752 mmHg 56%
10:00 +24°C° 0 mm 1 mps 752 mmHg 49%
11:00 +24°C° 0 mm 1 mps 751 mmHg 49%
12:00 +25°C° 0 mm 2 mps 750 mmHg 48%
13:00 +25°C° 0 mm 2 mps 750 mmHg 48%
14:00 +25°C° 0 mm 2 mps 749 mmHg 50%
15:00 +24°C° 0 mm 2 mps 749 mmHg 52%
16:00 +24°C° 0 mm 2 mps 749 mmHg 55%
17:00 +21°C° 0 mm 2 mps 749 mmHg 61%
18:00 +20°C° 0 mm 1 mps 749 mmHg 68%
19:00 +19°C° 0 mm 1 mps 750 mmHg 75%
20:00 +19°C° 0 mm 1 mps 750 mmHg 77%
21:00 +18°C° 0 mm 1 mps 751 mmHg 79%
22:00 +18°C° 0 mm 1 mps 752 mmHg 80%
23:00 +18°C° 0 mm 1 mps 751 mmHg 82%

Tomorrow, 12 August, Wednesday

Time Temperature Precipitation Wind Pressure Humidity
00:00 +16°C° 0 mm 1 mps 751 mmHg 84%
01:00 +16°C° 0 mm 1 mps 751 mmHg 86%
02:00 +16°C° 0 mm 1 mps 751 mmHg 87%
03:00 +16°C° 0 mm 1 mps 751 mmHg 88%
04:00 +15°C° 0 mm 1 mps 751 mmHg 89%
05:00 +16°C° 0 mm 1 mps 751 mmHg 89%
06:00 +16°C° 0 mm 1 mps 751 mmHg 89%
07:00 +16°C° 0 mm 1 mps 751 mmHg 89%
08:00 +20°C° 0 mm 1 mps 752 mmHg 79%
09:00 +22°C° 0 mm 1 mps 752 mmHg 69%
10:00 +25°C° 0 mm 1 mps 753 mmHg 59%
11:00 +26°C° 0 mm 1 mps 752 mmHg 58%
12:00 +26°C° 0 mm 1 mps 751 mmHg 57%
13:00 +27°C° 0 mm 2 mps 750 mmHg 55%
14:00 +26°C° 0 mm 2 mps 750 mmHg 59%
15:00 +25°C° 0 mm 2 mps 749 mmHg 62%
16:00 +25°C° 0 mm 2 mps 749 mmHg 65%
17:00 +23°C° 0 mm 2 mps 749 mmHg 73%
18:00 +22°C° 0 mm 1 mps 750 mmHg 81%
19:00 +20°C° 0 mm 1 mps 750 mmHg 88%
20:00 +20°C° 0 mm 1 mps 750 mmHg 90%
21:00 +19°C° 0 mm 1 mps 751 mmHg 91%
22:00 +17°C° 0 mm 0 mps 751 mmHg 92%
23:00 +19°C° 0 mm 1 mps 751 mmHg 93%

Day after tomorrow, 13 August, Thursday

Time Temperature Precipitation Wind Pressure Humidity
00:00 +19°C° 0 mm 1 mps 751 mmHg 93%
01:00 +19°C° 0 mm 1 mps 751 mmHg 93%
02:00 +19°C° 0 mm 1 mps 751 mmHg 93%
03:00 +18°C° 0 mm 1 mps 751 mmHg 94%
04:00 +18°C° 0 mm 1 mps 751 mmHg 94%
05:00 +18°C° 0 mm 1 mps 751 mmHg 94%
06:00 +18°C° 0 mm 1 mps 751 mmHg 94%
07:00 +18°C° 0 mm 1 mps 752 mmHg 94%
08:00 +21°C° 0 mm 1 mps 752 mmHg 84%
09:00 +23°C° 0 mm 1 mps 752 mmHg 74%
10:00 +26°C° 0 mm 1 mps 752 mmHg 64%
11:00 +26°C° 0 mm 1 mps 752 mmHg 62%
12:00 +26°C° 0 mm 1 mps 751 mmHg 61%
13:00 +27°C° 0 mm 2 mps 750 mmHg 59%
14:00 +26°C° 0 mm 2 mps 750 mmHg 61%
15:00 +26°C° 0 mm 2 mps 749 mmHg 63%
16:00 +25°C° 0 mm 2 mps 749 mmHg 64%
17:00 +23°C° 0 mm 2 mps 749 mmHg 73%
18:00 +21°C° 0 mm 2 mps 749 mmHg 81%
19:00 +19°C° 0 mm 2 mps 750 mmHg 89%
20:00 +20°C° 0 mm 1 mps 750 mmHg 90%
21:00 +19°C° 0 mm 1 mps 751 mmHg 91%
22:00 +19°C° 0 mm 1 mps 751 mmHg 92%
23:00 +19°C° 0 mm 1 mps 751 mmHg 92%

14 August, Friday

Time Temperature Precipitation Wind Pressure Humidity
00:00 +19°C° 0 mm 1 mps 751 mmHg 92%
01:00 +19°C° 0 mm 1 mps 750 mmHg 92%
02:00 +19°C° 0 mm 1 mps 750 mmHg 92%
03:00 +19°C° 0 mm 1 mps 750 mmHg 92%
04:00 +19°C° 0 mm 1 mps 750 mmHg 92%
05:00 +19°C° 0 mm 1 mps 750 mmHg 91%
06:00 +19°C° 0 mm 1 mps 751 mmHg 91%
07:00 +19°C° 0 mm 1 mps 751 mmHg 91%
08:00 +21°C° 0 mm 1 mps 751 mmHg 81%
09:00 +23°C° 0 mm 1 mps 751 mmHg 71%
10:00 +25°C° 0 mm 1 mps 751 mmHg 61%
11:00 +26°C° 0 mm 2 mps 751 mmHg 59%
12:00 +26°C° 0 mm 2 mps 750 mmHg 57%
13:00 +27°C° 0 mm 2 mps 749 mmHg 55%
14:00 +26°C° 0 mm 2 mps 749 mmHg 57%
15:00 +26°C° 0 mm 2 mps 749 mmHg 59%
16:00 +25°C° 0 mm 2 mps 748 mmHg 61%
17:00 +23°C° 0 mm 1 mps 749 mmHg 70%
18:00 +22°C° 0 mm 1 mps 749 mmHg 78%
19:00 +20°C° 0 mm 1 mps 750 mmHg 87%
20:00 +20°C° 0 mm 1 mps 750 mmHg 89%
21:00 +19°C° 0 mm 1 mps 750 mmHg 90%
22:00 +19°C° 0 mm 1 mps 751 mmHg 92%
23:00 +19°C° 0 mm 1 mps 750 mmHg 92%

15 August, Saturday

Time Temperature Precipitation Wind Pressure Humidity
00:00 +19°C° 0 mm 1 mps 750 mmHg 92%
01:00 +19°C° 0 mm 1 mps 750 mmHg 91%
02:00 +19°C° 0 mm 1 mps 750 mmHg 90%
03:00 +19°C° 0 mm 1 mps 749 mmHg 89%
04:00 +20°C° 0 mm 1 mps 749 mmHg 88%
05:00 +19°C° 0 mm 1 mps 750 mmHg 89%
06:00 +19°C° 0 mm 1 mps 750 mmHg 90%
07:00 +19°C° 0 mm 1 mps 750 mmHg 91%
08:00 +21°C° 0 mm 1 mps 750 mmHg 80%
09:00 +24°C° 0 mm 1 mps 750 mmHg 69%
10:00 +27°C° 0 mm 1 mps 750 mmHg 58%
11:00 +27°C° 0 mm 1 mps 750 mmHg 57%
12:00 +27°C° 0 mm 1 mps 749 mmHg 56%
13:00 +28°C° 0 mm 2 mps 748 mmHg 55%
14:00 +27°C° 0 mm 2 mps 748 mmHg 58%
15:00 +26°C° 0 mm 2 mps 748 mmHg 61%
16:00 +26°C° 0 mm 2 mps 747 mmHg 63%
17:00 +24°C° 0 mm 2 mps 748 mmHg 71%
18:00 +22°C° 0 mm 1 mps 748 mmHg 78%
19:00 +21°C° 0 mm 1 mps 749 mmHg 86%
20:00 +21°C° 0 mm 1 mps 749 mmHg 86%
21:00 +21°C° 0 mm 1 mps 749 mmHg 86%
22:00 +21°C° 0 mm 1 mps 749 mmHg 87%
23:00 +20°C° 0 mm 1 mps 749 mmHg 87%

16 August, Sunday

Time Temperature Precipitation Wind Pressure Humidity
00:00 +20°C° 0 mm 1 mps 749 mmHg 87%
01:00 +20°C° 0 mm 1 mps 749 mmHg 88%
02:00 +20°C° 0 mm 1 mps 749 mmHg 89%
03:00 +19°C° 0 mm 1 mps 749 mmHg 91%
04:00 +19°C° 0 mm 1 mps 748 mmHg 93%
05:00 +19°C° 0 mm 1 mps 749 mmHg 92%
06:00 +19°C° 0 mm 1 mps 749 mmHg 91%
07:00 +19°C° 0 mm 1 mps 750 mmHg 90%
08:00 +22°C° 0 mm 1 mps 750 mmHg 79%
09:00 +25°C° 0 mm 1 mps 750 mmHg 68%
10:00 +27°C° 0 mm 1 mps 750 mmHg 57%
11:00 +28°C° 0 mm 2 mps 750 mmHg 54%
12:00 +29°C° 0 mm 2 mps 749 mmHg 50%
13:00 +29°C° 0 mm 3 mps 748 mmHg 47%
14:00 +29°C° 0 mm 3 mps 748 mmHg 46%
15:00 +28°C° 0 mm 3 mps 747 mmHg 46%
16:00 +28°C° 0 mm 3 mps 747 mmHg 46%
17:00 +26°C° 0 mm 2 mps 747 mmHg 54%
18:00 +23°C° 0 mm 1 mps 748 mmHg 61%
19:00 +21°C° 0 mm 1 mps 748 mmHg 69%
20:00 +21°C° 0 mm 1 mps 748 mmHg 70%
21:00 +20°C° 0 mm 1 mps 749 mmHg 70%
22:00 +20°C° 0 mm 1 mps 749 mmHg 71%
23:00 +19°C° 0 mm 1 mps 749 mmHg 71%
Show more